Terminal Aerodrome Forecast
Issued by NWS

Home | Current Version | Previous Version | Text Only | Print | Product List | Glossary On
Versions: 1 2 3 4 5 6 7 8 9 10 11 12 13 14 15 16 17 18 19 20 21 22 23 24 25 26 27 28 29
000
FTUS45 KREV 280500 AAA
TAFTVL
TAF AMD
KTVL 280559Z 2806/0106 VRB03KT 4SM -SHSN BKN015 OVC030
      TEMPO 2806/2808 1SM -SHSN BKN012 OVC020
     FM280800 VRB04KT 1SM -SN BKN008 OVC015
     FM282100 VRB06KT 3SM -SHSN BKN012 OVC025
     FM010200 VRB03KT 5SM -SHSN BKN020 OVC035=

USA.gov is the U.S. government's official web portal to all federal, state and local government web resources and services.